Location: Добрич
(43.6638°N, 27.9002°E)
Time: 04:35:54
(UTC+03:00)

ISS - Pass Details

Date: 24 April 2026
Orbit: 414 x 424 km, 51.6° (Epoch: 15 May)

Event Time Altitude Azimuth Distance (km) Brightness Sun altitude
Exits shadow 04:58:33 17° 275° (W) 1,134 -2.0 -12.8°
Maximum altitude 05:00:44 38° 338° (NNW) 656 -2.7 -12.4°
Drops below altitude 10° 05:03:55 10° 48° (NE) 1,506 0.5 -11.9°
Sets 05:06:08 0° 57° (ENE) 2,375 2.3 -11.6°
